TimeEST,TemperatureF,Dew PointF,Humidity,Sea Level PressureIn,VisibilityMPH,Wind Direction,Wind SpeedMPH,Gust SpeedMPH,PrecipitationIn,Events,Conditions,WindDirDegrees,DateUTC
12:53 AM,34.0,30.0,85,30.11,10.0,Calm,Calm,-,N/A,,Overcast,0,2012-11-05 05:53:00
1:53 AM,35.1,28.9,78,30.11,10.0,Calm,Calm,-,N/A,,Overcast,0,2012-11-05 06:53:00
2:53 AM,35.1,28.9,78,30.11,10.0,Calm,Calm,-,N/A,,Overcast,0,2012-11-05 07:53:00
3:53 AM,35.1,28.9,78,30.10,10.0,Calm,Calm,-,N/A,,Overcast,0,2012-11-05 08:53:00
5:53 AM,35.1,30.0,82,30.13,10.0,Calm,Calm,-,N/A,,Overcast,0,2012-11-05 10:53:00
7:53 AM,36.0,30.0,79,30.16,10.0,Calm,Calm,-,N/A,,Overcast,0,2012-11-05 12:53:00
8:53 AM,37.0,28.9,73,30.16,10.0,Variable,3.5,-,N/A,,Overcast,0,2012-11-05 13:53:00
9:53 AM,39.0,28.0,65,30.16,10.0,West,3.5,-,N/A,,Overcast,280,2012-11-05 14:53:00
10:53 AM,39.9,28.9,65,30.16,10.0,Calm,Calm,-,N/A,,Overcast,0,2012-11-05 15:53:00
11:14 AM,39.2,28.4,65,30.15,10.0,Variable,3.5,-,N/A,,Overcast,0,2012-11-05 16:14:00
11:30 AM,39.2,26.6,61,30.15,10.0,NNW,5.8,-,N/A,,Overcast,340,2012-11-05 16:30:00
11:53 AM,39.9,27.0,60,30.16,10.0,NW,5.8,-,N/A,,Overcast,320,2012-11-05 16:53:00
12:53 PM,39.9,27.0,60,30.14,10.0,Variable,3.5,-,N/A,,Overcast,0,2012-11-05 17:53:00
1:53 PM,41.0,27.0,57,30.13,10.0,Calm,Calm,-,N/A,,Overcast,0,2012-11-05 18:53:00
2:53 PM,41.0,27.0,57,30.12,10.0,Calm,Calm,-,N/A,,Overcast,0,2012-11-05 19:53:00
3:53 PM,41.0,26.1,55,30.12,10.0,Calm,Calm,-,N/A,,Overcast,0,2012-11-05 20:53:00
4:53 PM,39.0,27.0,62,30.13,10.0,NE,3.5,-,N/A,,Overcast,50,2012-11-05 21:53:00
5:53 PM,37.0,28.0,70,30.14,10.0,Calm,Calm,-,N/A,,Overcast,0,2012-11-05 22:53:00
8:53 PM,32.0,26.1,79,30.16,10.0,ENE,4.6,-,N/A,,Clear,60,2012-11-06 01:53:00
9:53 PM,33.1,25.0,72,30.16,10.0,Calm,Calm,-,N/A,,Clear,0,2012-11-06 02:53:00
10:53 PM,30.0,25.0,82,30.16,10.0,Calm,Calm,-,N/A,,Clear,0,2012-11-06 03:53:00
11:53 PM,30.0,25.0,82,30.15,10.0,Calm,Calm,-,N/A,,Clear,0,2012-11-06 04:53:00